Regional Weather Roundup
Issued by NWS San Diego, CA

Home | Current Version | Previous Version | Text Only | Print | Product List | Glossary On
Versions: 1 2 3 4 5 6 7 8 9 10 11 12 13 14 15 16 17 18 19 20 21 22 23 24 25 26 27 28 29 30 31 32 33 34 35 36 37 38 39 40 41 42 43 44 45 46 47 48 49 50
000
ASUS46 KSGX 290510
RWRSGX

SAN DIEGO HOURLY WEATHER ROUNDUP
NATIONAL WEATHER SERVICE SAN DIEGO CA
900 PM PST WED JAN 28 2015

NOTE: "FAIR" INDICATES FEW OR NO CLOUDS BELOW 12,000 FEET WITH NO
SIGNIFICANT WEATHER AND/OR OBSTRUCTIONS TO VISIBILITY.

CAZ042-043-060-061-PZZ750-775-290600-

GREATER SAN DIEGO AREA

CITY           SKY/WX    TMP DP  RH WIND       PRES   REMARKS
LINDBERGH FLD  CLOUDY    64  51  62 CALM      30.10R
POINT LOMA       N/A     61  47  60 N3          N/A
NATIONAL CITY    N/A     64  56  76 CALM      30.09R
IMPERIAL BEACH CLOUDY    61  56  83 S6        30.09R
BROWN FIELD    CLOUDY    61  48  62 SE6       30.09R
MIRAMAR MCAS   CLOUDY    60  48  64 CALM      30.08R
MONTGOMERY FLD CLOUDY    62  48  60 CALM      30.09R

$$

NORTH SAN DIEGO COUNTY

CITY           SKY/WX    TMP DP  RH WIND       PRES   REMARKS
CAMP PENDLETON CLOUDY    59  51  75 CALM      30.08S
OCEANSIDE AP   CLOUDY    57  52  83 CALM      30.07R
OCEANSIDE HBR    N/A     61  56  84 CALM      30.10S
VISTA            N/A     59  52  75 CALM      30.07S
CARLSBAD       CLOUDY    62  52  69 CALM      30.07R
DEL MAR          N/A     60  56  87 CALM      30.11R
LA JOLLA SCRIP   N/A     60  56  86 CALM      30.06R
ESCONDIDO        N/A     62  53  72 CALM      30.10R
SAN MARCOS       N/A     62  53  71 CALM      30.07R
POWAY            N/A     59  52  79 W2        30.11R

$$

EAST SAN DIEGO COUNTY

CITY           SKY/WX    TMP DP  RH WIND       PRES   REMARKS
RAMONA         CLOUDY    55  45  68 CALM      30.11R
SANTEE LAKES     N/A     59  53  79 CALM      30.10R
LA MESA          N/A     63  52  67 CALM      30.04R
JAMUL            N/A     58  49  70 CALM      30.09R
CAMPO            N/A     56  41  57 E13       30.10S

$$

ORANGE COUNTY AND THE LOS ANGELES BASIN

CITY           SKY/WX    TMP DP  RH WIND       PRES   REMARKS
JOHN WAYNE AP  CLOUDY    66  54  65 CALM      30.08R
LAGUNA BEACH     N/A     58  51  78 CALM      30.04S
LAKE FOREST FR   N/A     63  42  47 CALM      29.98F
SANTA ANA        N/A     63  54  73 CALM      30.03S
HUNTINGTON BCH   N/A     60  57  88 CALM      30.09S
LOS ALAMITOS   CLOUDY    60  53  77 CALM      30.08S
FULLERTON      CLOUDY    65  50  58 CALM      30.07S
LONG BEACH     CLOUDY    63  52  67 NW3       30.08S
L.A. AP        CLOUDY    63  54  72 CALM      30.09R
L.A. DOWNTOWN  CLOUDY    65  51  60 CALM      30.08R

$$

THE INLAND EMPIRE

CITY           SKY/WX    TMP DP  RH WIND       PRES   REMARKS
CORONA         CLOUDY    67  46  46 S7        30.11S
CHINO          CLOUDY    62  47  57 SE5       30.11S
ONTARIO        CLOUDY    64  45  49 NE3       30.10S
RIVERSIDE AP   CLOUDY    65  43  44 E5        30.11S
MARCH ARB      CLOUDY    61  46  58 N2        30.12S
FRENCH VALLEY  FAIR      57  46  67 N5        30.11F

$$

SAN BERNARDINO AND RIVERSIDE COUNTY MOUNTAINS

CITY           SKY/WX    TMP DP  RH WIND       PRES   REMARKS
BIG BEAR AP    CLOUDY    34  32  93 CALM      30.28R
PINE COVE        N/A     47  15  27 CALM      30.17R

$$

SOUTHERN DESERT INCLUDING THE COACHELLA VALLEY

CITY           SKY/WX    TMP DP  RH WIND       PRES   REMARKS
PALM SPRINGS   CLOUDY    68  44  42 NW5       30.14S
THOUSAND PALMS   N/A     65  49  57 CALM      30.12
PALM DESERT      N/A     64  52  64 CALM      27.49S
THERMAL        CLOUDY    62  50  64 NW5       30.10R
BLYTHE         CLOUDY    64  51  62 N9        30.11S
IMPERIAL AP    CLOUDY    63  51  65 NW3       30.09F
EL CENTRO NAS  CLOUDY    60  52  74 NW6       30.09F
YUMA AZ        CLOUDY    64  51  62 SW3       30.10R
MEXICALI       CLOUDY    63  52  67 CALM      30.11

$$

UPPER DESERT

CITY           SKY/WX    TMP DP  RH WIND       PRES   REMARKS
VICTORVILLE AP CLOUDY    52  45  76 CALM      30.21S
APPLE VALLEY     N/A     54  40  60 CALM      30.23R
PALMDALE       CLOUDY    52  46  80 CALM      30.20S
LANCASTER      CLOUDY    51  46  83 CALM      30.20S
EDWARDS AFB    CLOUDY    53  49  86 N6        30.18S
DAGGETT        CLOUDY    56  48  74 CALM      30.19S
29 PALMS N     CLOUDY    56  47  71 W9        30.25S
NEEDLES        CLOUDY    64  48  56 N7        30.14S

$$

REGIONAL REPORTS

CITY           SKY/WX    TMP DP  RH WIND       PRES   REMARKS
SANTA BARBARA  CLOUDY    57  52  83 CALM      30.10R
SANDBERG       CLOUDY    50  41  71 E17       30.22R
MT. WILSON       N/A     46  28  49 MISG        N/A
LAS VEGAS NV   CLOUDY    58  47  66 SW7       30.17S
PHOENIX AZ     CLOUDY    67  51  56 W6        30.07R
TIJUANA        CLOUDY    63  46  55 CALM      30.10S

$$

OFFSHORE ISLANDS

CITY           SKY/WX    TMP DP  RH WIND       PRES   REMARKS
CATALINA ARPT  CLOUDY    63  40  42 NE6       30.12S
SAN NICOLAS IS CLOUDY   N/A N/A N/A W6        30.10S

$$

MARINE AND OFFSHORE BUOY REPORTS

STATION/POSITION SKY/WX   TEMP    WIND        PRES    SWELL
                          AIR SEA DIR/SP/G            HT/PER/DIR
                          (F)     (DEG/KT/KT) (MB)    (FT/S/D)
TANNER BANKS               61 62  330/  8/ 10 1018.7F   5/280/14
S CLEMENTE BASIN           63 63  340/  4/  6 1018.3S   5/280/14
SAN NICOLAS IS.               62                N/A     3/260/14
SO. S. ROSA ISLA           61 60  320/  8/ 10 1018.6F   5/14
W. S. BARBARA CH           62 60  310/  8/ 10 1018.9R   5/260/13
S. MONICA BASIN            62 62  290/  8/ 10 1019.4R   3/270/13
S PEDRO CHANNEL               62                N/A     3/270/14
DANA POINT                    62                N/A     2/250/13
CMP PENDLETON NS              62                N/A     3/250/14
OCEANSIDE OFFSHR              62                N/A     3/230/12
TORREY PINES OTR              62                N/A     3/250/13
LA JOLLA 1                 62 62  140/  2/  3 1018.8S
MISSION BAY BUOY              62                N/A     3/270/14
SAN DIEGO BAY                 62              1019.2F
POINT LOMA SOUTH              62                N/A     3/260/13

$$



USA.gov is the U.S. government's official web portal to all federal, state and local government web resources and services.